When you browse on this site, cookies collect data to enhance your experience and personalize the content and advertising you see.
Visit our Privacy Policy to learn more. By continuing to use the site, you agree to this use of cookies and data.
  • Em Portugal
  • Lista de países
  • Para 7 dias
  • Temperatura da água
  • Mapa do tempo
  • Widgets de tempo
  • user-avatar
    Iniciar Sessão

    Previsão horária em Podlas

    Hoje, 29 Janeiro, Quarta-feira

    Tempo Temperatura Precipitação Vento Pressão Humidade
    00:00 +1°C° 0 mm 3 m/s 732 mmHg 86%
    01:00 0°C° 0 mm 4 m/s 731 mmHg 88%
    02:00 0°C° 0 mm 5 m/s 731 mmHg 88%
    03:00 -1°C° 0 mm 6 m/s 731 mmHg 89%
    04:00 -1°C° 0 mm 6 m/s 731 mmHg 90%
    05:00 -2°C° 0 mm 6 m/s 732 mmHg 87%
    06:00 -1°C° 0 mm 5 m/s 733 mmHg 84%
    07:00 -1°C° 0 mm 5 m/s 733 mmHg 82%
    08:00 -1°C° 0 mm 5 m/s 733 mmHg 77%
    09:00 -1°C° 0 mm 6 m/s 734 mmHg 72%
    10:00 0°C° 0 mm 7 m/s 734 mmHg 67%
    11:00 0°C° 0.1 mm 7 m/s 734 mmHg 66%
    12:00 0°C° 0.1 mm 7 m/s 734 mmHg 65%
    13:00 +1°C° 0.1 mm 8 m/s 734 mmHg 63%
    14:00 0°C° 0 mm 7 m/s 734 mmHg 65%
    15:00 +1°C° 0 mm 6 m/s 734 mmHg 68%
    16:00 +1°C° 0 mm 6 m/s 734 mmHg 70%
    17:00 -1°C° 0 mm 6 m/s 735 mmHg 75%
    18:00 -1°C° 0 mm 6 m/s 735 mmHg 80%
    19:00 -1°C° 0 mm 6 m/s 736 mmHg 85%
    20:00 -1°C° 0 mm 6 m/s 736 mmHg 85%
    21:00 -1°C° 0 mm 6 m/s 736 mmHg 86%
    22:00 -1°C° 0 mm 6 m/s 736 mmHg 86%
    23:00 -2°C° 0 mm 6 m/s 737 mmHg 85%

    Amanhã, 30 Janeiro, Quinta-feira

    Tempo Temperatura Precipitação Vento Pressão Humidade
    00:00 -2°C° 0 mm 6 m/s 737 mmHg 85%
    01:00 -2°C° 0 mm 6 m/s 738 mmHg 84%
    02:00 -2°C° 0 mm 6 m/s 738 mmHg 86%
    03:00 -2°C° 0 mm 7 m/s 738 mmHg 88%
    04:00 -2°C° 0 mm 7 m/s 738 mmHg 91%
    05:00 -2°C° 0 mm 7 m/s 739 mmHg 89%
    06:00 -2°C° 0 mm 7 m/s 739 mmHg 88%
    07:00 -2°C° 0 mm 7 m/s 740 mmHg 87%
    08:00 -1°C° 0 mm 7 m/s 740 mmHg 84%
    09:00 -1°C° 0 mm 7 m/s 740 mmHg 82%
    10:00 0°C° 0 mm 7 m/s 740 mmHg 79%
    11:00 0°C° 0 mm 7 m/s 740 mmHg 73%
    12:00 +2°C° 0 mm 7 m/s 740 mmHg 67%
    13:00 +3°C° 0 mm 6 m/s 740 mmHg 61%
    14:00 +2°C° 0 mm 6 m/s 740 mmHg 65%
    15:00 +2°C° 0 mm 5 m/s 740 mmHg 69%
    16:00 +1°C° 0 mm 5 m/s 739 mmHg 73%
    17:00 +1°C° 0.1 mm 5 m/s 739 mmHg 79%
    18:00 +1°C° 0.1 mm 5 m/s 739 mmHg 85%
    19:00 +1°C° 0.1 mm 5 m/s 739 mmHg 91%
    20:00 +1°C° 0.1 mm 5 m/s 739 mmHg 90%
    21:00 +1°C° 0.1 mm 5 m/s 738 mmHg 89%
    22:00 +1°C° 0.1 mm 5 m/s 738 mmHg 88%
    23:00 +1°C° 0 mm 5 m/s 738 mmHg 87%

    Depois de amanhã, 31 Janeiro, Sexta-feira

    Tempo Temperatura Precipitação Vento Pressão Humidade
    00:00 +1°C° 0 mm 5 m/s 738 mmHg 85%
    01:00 +1°C° 0 mm 4 m/s 737 mmHg 83%
    02:00 +1°C° 0 mm 4 m/s 737 mmHg 82%
    03:00 +1°C° 0 mm 4 m/s 736 mmHg 80%
    04:00 0°C° 0 mm 4 m/s 735 mmHg 79%
    05:00 +1°C° 0.5 mm 4 m/s 735 mmHg 80%
    06:00 +1°C° 0.5 mm 5 m/s 734 mmHg 82%
    07:00 +1°C° 0.5 mm 5 m/s 733 mmHg 83%
    08:00 +2°C° 1.1 mm 6 m/s 733 mmHg 85%
    09:00 +3°C° 1.1 mm 6 m/s 732 mmHg 87%
    10:00 +4°C° 1.1 mm 7 m/s 732 mmHg 88%
    11:00 +5°C° 0.7 mm 7 m/s 732 mmHg 84%
    12:00 +6°C° 0.7 mm 8 m/s 733 mmHg 79%
    13:00 +7°C° 0.7 mm 8 m/s 733 mmHg 74%
    14:00 +7°C° 0.1 mm 8 m/s 734 mmHg 74%
    15:00 +6°C° 0.1 mm 7 m/s 734 mmHg 74%
    16:00 +6°C° 0.1 mm 7 m/s 735 mmHg 74%
    17:00 +5°C° 0 mm 6 m/s 736 mmHg 76%
    18:00 +5°C° 0 mm 6 m/s 737 mmHg 79%
    19:00 +5°C° 0 mm 6 m/s 738 mmHg 81%
    20:00 +5°C° 0 mm 6 m/s 739 mmHg 82%
    21:00 +5°C° 0 mm 5 m/s 739 mmHg 84%
    22:00 +5°C° 0 mm 5 m/s 739 mmHg 85%
    23:00 +5°C° 0 mm 5 m/s 740 mmHg 86%

    1 Fevereiro, Sábado

    Tempo Temperatura Precipitação Vento Pressão Humidade
    00:00 +4°C° 0 mm 4 m/s 740 mmHg 87%
    01:00 +4°C° 0 mm 4 m/s 740 mmHg 88%
    02:00 +4°C° 0 mm 3 m/s 740 mmHg 87%
    03:00 +4°C° 0 mm 3 m/s 740 mmHg 87%
    04:00 +4°C° 0 mm 3 m/s 740 mmHg 86%
    05:00 +4°C° 0 mm 3 m/s 740 mmHg 85%
    06:00 +4°C° 0 mm 3 m/s 740 mmHg 83%
    07:00 +4°C° 0 mm 3 m/s 740 mmHg 81%
    08:00 +4°C° 0 mm 4 m/s 740 mmHg 79%
    09:00 +5°C° 0 mm 4 m/s 740 mmHg 77%
    10:00 +6°C° 0 mm 4 m/s 740 mmHg 74%
    11:00 +7°C° 0 mm 4 m/s 739 mmHg 72%
    12:00 +8°C° 0 mm 4 m/s 739 mmHg 70%
    13:00 +11°C° 0 mm 4 m/s 738 mmHg 68%
    14:00 +10°C° 0 mm 4 m/s 738 mmHg 71%
    15:00 +8°C° 0 mm 5 m/s 738 mmHg 73%
    16:00 +7°C° 0 mm 5 m/s 737 mmHg 76%
    17:00 +7°C° 0 mm 5 m/s 737 mmHg 77%
    18:00 +7°C° 0 mm 5 m/s 737 mmHg 78%
    19:00 +6°C° 0 mm 5 m/s 736 mmHg 78%
    20:00 +7°C° 0.6 mm 5 m/s 736 mmHg 81%
    21:00 +7°C° 0.6 mm 5 m/s 736 mmHg 84%
    22:00 +7°C° 0.6 mm 5 m/s 735 mmHg 87%
    23:00 +7°C° 0.6 mm 5 m/s 735 mmHg 88%

    2 Fevereiro, Domingo

    Tempo Temperatura Precipitação Vento Pressão Humidade
    00:00 +7°C° 0.6 mm 6 m/s 735 mmHg 88%
    01:00 +7°C° 0.6 mm 6 m/s 736 mmHg 89%
    02:00 +7°C° 0.7 mm 6 m/s 736 mmHg 82%
    03:00 +5°C° 0.7 mm 6 m/s 737 mmHg 75%
    04:00 +5°C° 0.7 mm 6 m/s 737 mmHg 68%
    05:00 +4°C° 0 mm 6 m/s 738 mmHg 70%
    06:00 +3°C° 0 mm 5 m/s 739 mmHg 72%
    07:00 +3°C° 0 mm 5 m/s 740 mmHg 74%
    08:00 +3°C° 0 mm 6 m/s 740 mmHg 73%
    09:00 +3°C° 0 mm 7 m/s 741 mmHg 71%
    10:00 +4°C° 0 mm 8 m/s 741 mmHg 70%
    11:00 +4°C° 0 mm 8 m/s 742 mmHg 70%
    12:00 +4°C° 0 mm 8 m/s 742 mmHg 70%
    13:00 +3°C° 0 mm 9 m/s 742 mmHg 71%
    14:00 +2°C° 0.1 mm 8 m/s 742 mmHg 76%
    15:00 +2°C° 0.1 mm 8 m/s 742 mmHg 81%
    16:00 +3°C° 0.1 mm 7 m/s 742 mmHg 86%
    17:00 +3°C° 0 mm 7 m/s 743 mmHg 84%
    18:00 +3°C° 0 mm 6 m/s 743 mmHg 81%
    19:00 +3°C° 0 mm 6 m/s 743 mmHg 79%
    20:00 +3°C° 0 mm 5 m/s 744 mmHg 78%
    21:00 +2°C° 0 mm 5 m/s 744 mmHg 77%
    22:00 +3°C° 0 mm 4 m/s 744 mmHg 77%
    23:00 +3°C° 0 mm 4 m/s 744 mmHg 77%

    3 Fevereiro, Segunda-feira

    Tempo Temperatura Precipitação Vento Pressão Humidade
    00:00 +3°C° 0 mm 4 m/s 743 mmHg 77%
    01:00 +3°C° 0 mm 4 m/s 743 mmHg 78%
    02:00 +3°C° 0.1 mm 4 m/s 743 mmHg 80%
    03:00 +3°C° 0.1 mm 4 m/s 742 mmHg 82%
    04:00 +3°C° 0.1 mm 4 m/s 742 mmHg 84%
    05:00 +4°C° 0.2 mm 4 m/s 742 mmHg 84%
    06:00 +3°C° 0.2 mm 5 m/s 741 mmHg 85%
    07:00 +4°C° 0.2 mm 6 m/s 741 mmHg 85%
    08:00 +5°C° 0.1 mm 6 m/s 741 mmHg 83%
    09:00 +6°C° 0.1 mm 7 m/s 741 mmHg 81%
    10:00 +6°C° 0.1 mm 8 m/s 742 mmHg 78%
    11:00 +6°C° 0.1 mm 8 m/s 742 mmHg 74%
    12:00 +7°C° 0.1 mm 8 m/s 742 mmHg 70%
    13:00 +7°C° 0.1 mm 9 m/s 742 mmHg 66%
    14:00 +6°C° 0 mm 7 m/s 743 mmHg 69%
    15:00 +7°C° 0 mm 6 m/s 743 mmHg 72%
    16:00 +6°C° 0 mm 5 m/s 744 mmHg 75%
    17:00 +6°C° 0 mm 4 m/s 744 mmHg 77%
    18:00 +6°C° 0 mm 4 m/s 744 mmHg 78%
    19:00 +7°C° 0 mm 3 m/s 745 mmHg 79%
    20:00 +5°C° 0 mm 3 m/s 745 mmHg 82%
    21:00 +5°C° 0 mm 3 m/s 745 mmHg 84%
    22:00 +5°C° 0 mm 2 m/s 745 mmHg 87%
    23:00 +4°C° 0.1 mm 3 m/s 744 mmHg 86%
    Mostrar mais